Página principal
METAR-TAF:

METAR-TAF

Aeroportos :

Roscommon County - Blodgett Memorial Airport

Houghton Lake, Michigan, Estados Unidos

latitude: 44-21-04N, longitude: 084-40-27W, altura: 350 m

Observação actual do tempo

O boletim foi feito há 21 horas e 27 minutos, às 23:53 UTC
Vento 7 kt de es-sudeste
Temperatura 22°C
Humidade 69%
Pressão 1015 hPa
Visibilidade: 16.1 km
Céu limpo

METAR: KHTL 202353Z AUTO 11007KT 10SM CLR 22/16 A2998 RMK AO2 SLP147 T02220161 10256 20222 56006

Hora: 17:20 (21:20 UTC)


TAF: em falta

Observações e previsões do tempo de mais de 4000 aeroportos (mensagens METAR e TAF).

As estações disponíveis são os pontos amarelos e vermelhos sobre o mapa.

Mova o rato sobre o mapa para ver o nome da estação.

Depois clique no ponto para visualizar as observações e previsões meteorológicas.

Para alterar o mapa : clique nos botões verdes com uma cruz preta para aumentar o zoom; no botão verde com uma pitada de zoom; ou nas setas verdes para mapas adjacentes.


METAR-TAF: